Weather in Negnevichi

Belarus     53°39′22″N   26°04′36″E
temp.,
°C
wind,
m/s
gust,
m/s
humid.,
%
clouds,
%
prec.,
mm/h
press.,
hPa
HPBL,
m
12 april, mon
mon1200:00+9sse41467100 0.0 1024332
03:00+8sse4146965 0.0 1024329
06:00+6se41374100 0.0 1024303
09:00+9se5126553 0.0 1024461
12:00+13sse71046100 0.0 10221167
15:00+15sse683897 0.0 10211481
18:00+15sse4845100 0.0 1019937
21:00+11se3105799 0.0 1020224
13 april, tue
tue1300:00+10sse3105996 0.0 1019223
03:00+9se386492 0.0 1020201
06:00+9s227978 0.3 102062
09:00+8nw3590100 0.3 1021280
12:00+7nnw4691100 0.2 1022394
15:00+7nnw4789100 0.7 1022501
18:00+6n5888100 0.0 1021474
21:00+5n5987100 0.0 1021432
14 april, wed
wed1400:00+4n4987100 0.0 1020420
03:00+4n51182100 0.0 1019456
06:00+4n51080100 0.0 1018567
09:00+4n51082100 0.1 1018613
12:00+4n51089100 2.3 1018562
15:00+4n51093100 4.9 1017584
18:00+3nne51095100 1.4 1017500
21:00+3nne51096100 2.4 1018410
15 april, thu
thu1500:00+3nne4997100 0.0 1017341
03:00+3ne4998100 0.2 1017295
06:00+4ne4899100 0.1 1016279
09:00+6ene3797100 0.1 1017317
12:00+10ne458594 0.0 1017631
15:00+9ne4688100 0.3 1017529
18:00+9nne4886100 0.3 1017473
21:00+6nne4992100 0.4 1018386
16 april, fri
fri1600:00+5ne4994100 0.0 1018473
03:00+5nne4893100 0.0 1018436
06:00+5nne4993100 0.0 1018464
09:00+6nne41092100 0.0 1018534
12:00+6ne51090100 0.9 1019580
15:00+9ne6781100 0.9 1020741
18:00+8nne5985100 0.0 1021826
21:00+7ne51188100 0.0 1022725